Volver al catálogo

COSMOS 1823 DEB

ActivoLEO
NORAD 18742·DEBRIS·🇷🇺 Russia

Lanzado Feb 20, 1987 desde Plesetsk Cosmodrome

Loading…

Próximos Pases (próximas 24 horas)

TLE

ActualizadoSource: Space-Track

Época: Sep 14, 2026, 12:39 UTC

1 18742U 87020V   26257.52722750  .00000181  00000-0  11531-2 0  9994
2 18742  73.5151  93.9853 0056550  13.4638  15.0451 12.59378988773080

Sigue COSMOS 1823 DEB en tiempo real con AllMySat

Download on the App Store